Date,TemperatureHighF,TemperatureAvgF,TemperatureLowF,DewpointHighF,DewpointAvgF,DewpointLowF,HumidityHigh,HumidityAvg,HumidityLow,PressureMaxIn,PressureMinIn,WindSpeedMaxMPH,WindSpeedAvgMPH,GustSpeedMaxMPH,PrecipitationSumIn
2013-5-1,73,54,33,43,34,25,73,50,30,28.80,28.69,0,0,0,0.00
2013-5-2,81,65,46,44,33,21,45,31,17,28.76,28.58,0,0,0,0.00
2013-5-3,81,64,44,47,41,33,65,45,28,28.66,28.44,0,0,0,0.00
2013-5-4,81,64,44,49,38,31,70,42,17,28.51,28.19,0,0,0,0.00
2013-5-5,84,64,48,51,43,35,66,48,23,28.25,28.07,0,0,0,0.01
2013-5-6,73,59,48,54,48,40,78,66,49,28.35,28.22,0,0,0,0.07
2013-5-7,108,65,0,56,54,0,76,70,61,30.03,0.00,145,1,145,14.80
2013-5-8,74,63,53,59,53,48,84,72,52,28.56,28.43,0,0,0,0.28
2013-5-9,81,68,53,58,53,48,85,61,39,28.57,28.47,0,0,0,0.00
2013-5-10,86,66,54,62,54,48,79,67,39,28.63,28.51,0,0,0,0.00
2013-5-11,87,69,58,65,56,50,78,64,41,28.64,28.45,0,0,0,0.00
2013-5-12,84,68,55,58,50,42,73,54,32,28.56,28.45,0,0,39,12.44
2013-5-13,76,64,50,54,46,39,69,52,35,28.59,28.49,0,0,0,0.00
2013-5-14,115,56,46,100,43,38,100,64,35,29.98,28.44,0,0,0,14.30
2013-5-15,71,56,51,67,42,39,100,60,47,29.06,28.45,0,0,0,15.08
2013-5-16,65,55,53,52,46,42,82,72,52,28.45,28.35,0,0,0,14.58
2013-5-17,66,57,50,47,43,41,77,60,41,28.52,28.42,0,0,0,0.05
2013-5-18,66,57,50,51,45,41,76,66,55,28.71,28.52,0,0,0,0.05
2013-5-19,70,59,50,47,44,41,76,59,41,28.78,28.63,7,0,7,0.05
2013-5-20,79,62,44,53,44,35,80,54,26,28.69,28.35,9,0,9,0.00
2013-5-21,64,55,40,44,39,32,78,55,42,28.53,28.28,18,3,18,0.10
2013-5-22,99,45,32,99,35,0,100,70,45,29.03,28.45,21,0,21,14.83
2013-5-23,61,51,42,45,39,36,86,66,44,28.49,28.42,9,0,9,14.56
2013-5-24,62,53,44,43,40,35,74,60,46,28.51,28.45,7,0,7,14.56
2013-5-25,71,56,41,46,41,34,78,58,35,28.50,28.34,8,0,8,14.56
2013-5-26,68,59,52,53,46,42,80,65,45,28.49,28.42,8,0,8,14.56
2013-5-27,66,57,52,55,50,43,84,76,65,28.47,28.27,8,0,8,14.56
2013-5-28,71,61,51,55,49,45,87,68,43,28.39,28.23,8,0,8,14.56
2013-5-29,70,60,51,52,45,37,82,60,40,28.51,28.22,12,3,12,14.56
2013-5-30,68,57,49,44,41,37,72,57,37,28.64,28.50,9,1,9,14.56
2013-5-31,77,60,41,50,42,33,78,54,26,28.69,28.56,7,0,7,14.56